Terug naar catalogus

COSMOS 2227

ActiefMilitairLEO
NORAD 22284·PAYLOAD·🇷🇺 Russia

Gelanceerd Dec 25, 1992 vanaf Baikonur Cosmodrome

Loading…

Volgende Passages (komende 24 uur)

TLE

VersSource: Space-Track

Epoch: Sep 14, 2026, 00:25 UTC

1 22284U 92093A   26257.01769577  .00000127  00000-0  92013-4 0  9994
2 22284  70.9826 356.7303 0016466 109.4311 250.8592 14.13795378739380

Volg COSMOS 2227 in realtime met AllMySat

Download on the App Store